Location: Drignac
(45.1667°N, 2.0333°E)
Time: 13:24:40
(UTC+00:00)

Meteor 2-15 Rocket - Pass Details

Date: 29 March 2020
Orbit: 940 x 955 km, 82.5° (Epoch: 27 May)

Event Time Altitude Azimuth Distance (km) Brightness Sun altitude
Rises 19:52:24 0° 182° (S) 3,595 7.3 -17.1°
Reaches altitude 10° 19:54:52 10° 181° (S) 2,653 6.6 -17.5°
Maximum altitude 20:00:55 79° 96° (E) 964 4.3 -18.5°
Drops below altitude 10° 20:07:01 10° 11° (NNE) 2,666 7.0 -19.4°
Sets 20:09:30 0° 11° (N) 3,615 7.7 -19.8°
